sat.trackr.live / text

‹ back to catalog

STARLINK-33654

NORAD 63466 · 2025-070G

PAYLOAD ACTIVE UNKNOWN

§ Identity

Operator
Country
US
Launch date
2025-04-06
Launch site
AFETR
Launch vehicle
Mass (kg)
RCS (m²)

Purposes: comms

External: N2YO · Heavens-Above · Gunter

§ Orbital elements

Epoch: 2026-05-24T20:20:05.539776Z

Period
94.27 min
Inclination
43.0000°
Eccentricity
0.0001736
Mean motion
15.27602629 rev/d
Perigee alt
481.8 km
Apogee alt
484.2 km
Semi-major
6,861.1 km
B*
5.1701e-4
RAAN
189.7168°
Arg perigee
275.3595°
Mean anomaly
84.7059°
Rev number
6,462

§ Raw data

STARLINK-336541 63466U 25070G   26144.84728634  .00014002  00000+0  51701-3 0  99912 63466  43.0000 189.7168 0001736 275.3595  84.7059 15.27602629 64628

JSON: /api/v1/satellites/63466 · /tle

For live sub-satellite position, see the globe view (requires WebGL).

§ Visibility from observer

Set your observer location to see the next 7 days of passes ≥ 10°. The values pass through the URL so the page stays shareable.

No JS? Fill the form by hand. The geolocation button needs JavaScript.